User: anonymous   Login
Location: Fort Wayne
(41.1310°N, 85.1290°W)
Time: 23:57:54
(UTC-04:00)
Language:

OAO 2 Rocket - Orbit

View from above orbital plane
View from above orbital plane
View from above satellite
View from above satellite

Ground track
Ground track

The orbit data is extracted from the following two-line orbital elements,

1 03598U 68110B   16210.15439460  .00000056  00000-0  17722-4 0  9997
2 03598  34.9947   6.8818 0048634 119.8628 240.6910 14.54234461519274
Epoch (UTC): 28 July 2016 03:42:19
Eccentricity: 0.0048634
inclination: 34.9947°
perigee height: 677 km
apogee height: 746 km
right ascension of ascending node: 6.8818°
argument of perigee: 119.8628°
revolutions per day: 14.54234461
mean anomaly at epoch: 240.6910°
orbit number at epoch: 51927

The dashed part of the orbit path shows where the satellite is in the earth's shadow,  

DLR